Flag for Germany Weather past 2 weeks in Viernheim, Hesse, Germany

Now
50 °F

Passing clouds.


Feels Like: 50 °F
Forecast: 39 / 62 °F
Wind: 2 mph from North

Location: Baden Wurttemberg - Neuostheim

Current Time: Sep 22, 2014 at 6:55:40 AM

Latest Report: Sep 22, 2014 at 6:20 AM


Visibility: 5 mi

Pressure: 30.12 "Hg

Humidity: 94%

Dew point: 48 °F

Location of ViernheimLocation

Historic Weather in Viernheim — Graph

°F

Viernheim temperature yesterday

Maximum temperature yesterday: 68 °F (at 1:20 PM)
Minimum temperature yesterday: 59 °F (at 6:50 PM)
Average temperature yesterday: 63 °F

Past Weeks' High & Low Weather Summary

 TemperatureHumidityPressure
High79 °F (Sep 17, 3:20 PM)100% (Sep 15, 4:20 AM)30.18 "Hg (Sep 15, 4:20 AM)
Low50 °F (Sep 11, 5:20 AM)39% (Sep 17, 4:20 PM)29.86 "Hg (Sep 17, 3:20 PM)
Average66 °F74%30.00 "Hg
* Reported Sep 7 7:50 AM — Sep 22 5:50 AM, Viernheim, Weather by CustomWeather, © 2014

Note: Actual official high and low records may vary slightly from our data, if they occured in-between our weather recording intervals... More about our weather records

Advertising

Viernheim weather history for previous 24 hours

 ConditionsComfort  
Time TempWeatherWind HumidityBarometerVisibility
5:50 AM
Sep 22
50 °FPassing clouds.2 mph94%30.12 "Hg4 mi
7:50 PM
Sep 21
59 °FPartly sunny.5 mph94%30.01 "HgN/A
7:20 PM59 °FRain. Partly sunny.7 mph94%30.01 "Hg3 mi
6:50 PM59 °FLight rain. Partly sunny.5 mph94%30.01 "HgN/A
6:20 PM61 °FRain. Scattered clouds.6 mph88%30.01 "Hg4 mi
5:50 PM61 °FLight rain. Mostly cloudy.7 mph88%29.98 "HgN/A
5:20 PM61 °FLight rain. Mostly cloudy.10 mph88%29.98 "Hg6 mi
4:50 PM63 °FLight rain. Partly sunny.8 mph94%29.98 "Hg5 mi
4:20 PM61 °FRain. Broken clouds.9 mph100%29.98 "Hg4 mi
3:50 PM61 °FRain. Scattered clouds.10 mph94%29.95 "Hg3 mi
3:20 PM64 °FThunderstorms. Broken clouds.8 mph88%29.95 "Hg4 mi
2:50 PM68 °FLight rain. Broken clouds.6 mph69%29.95 "HgN/A
2:20 PM68 °FBroken clouds.3 mph73%29.95 "HgN/A
1:50 PM68 °FBroken clouds.6 mph73%29.95 "HgN/A
1:20 PM68 °FPartly sunny.6 mph73%29.98 "HgN/A
12:50 PM66 °FCloudy.7 mph78%29.98 "HgN/A
12:20 PM66 °FBroken clouds.7 mph78%29.98 "HgN/A
11:50 AM66 °FBroken clouds.6 mph78%29.98 "HgN/A
11:20 AM64 °FLight rain. Partly sunny.5 mph83%29.98 "HgN/A
10:50 AM64 °FMostly cloudy.7 mph83%29.98 "HgN/A
10:20 AM64 °FScattered showers. Partly sunny.6 mph88%29.98 "HgN/A
9:20 AM63 °FMostly cloudy.2 mph94%29.98 "HgN/A
8:50 AM63 °FScattered showers. Mostly cloudy.3 mph94%29.98 "HgN/A
8:20 AM61 °FLow clouds.2 mph100%29.98 "HgN/A
7:50 AM61 °FMostly cloudy.2 mph100%29.98 "HgN/A
Weather by CustomWeather, © 2014

See weather overviewHow to use our weather pages